Back to catalog

NOAA 17 DEB

AliveSSO
NORAD 48748·DEBRIS·🇺🇸 United States

Launched Jun 24, 2002 from Vandenberg Space Force Base

Loading…

Next Passes (next 24 hours)

TLE

FreshSource: Space-Track

Epoch: Sep 14, 2026, 04:22 UTC

1 48748U 02032CH  26257.18240313  .00004627  00000-0  11631-2 0  9995
2 48748  98.7595 241.2096 0023167 346.9788  13.0804 14.51590606286092

Track NOAA 17 DEB in real time with AllMySat

Download on the App Store